| time (UTC) | temp F | wind direction | speed knots | gust knots | rain 1hr in | rain 24hr in | rain mn in | humidity % | barometer mb |
| 20260504205002 | 68 | 0.0 | 0.0 | 0.00 | 0.00 | 0.00 | 29 | 1012.7 | |
| 20260504204502 | 67 | 0.0 | 0.0 | 0.00 | 0.00 | 0.00 | 29 | 1012.7 | |
| 20260504204002 | 68 | 0.0 | 0.0 | 0.00 | 0.00 | 0.00 | 29 | 1012.7 | |
| 20260504203502 | 69 | 0.0 | 0.0 | 0.00 | 0.00 | 0.00 | 27 | 1012.6 | |
| 20260504203002 | 70 | 0.0 | 0.0 | 0.00 | 0.00 | 0.00 | 26 | 1012.6 | |
| 20260504202502 | 70 | 0.0 | 0.0 | 0.00 | 0.00 | 0.00 | 26 | 1012.6 | |
| 20260504202002 | 71 | 0.0 | 0.0 | 0.00 | 0.00 | 0.00 | 25 | 1012.4 | |
| 20260504201502 | 71 | 0.0 | 0.0 | 0.00 | 0.00 | 0.00 | 25 | 1012.4 | |
| 20260504201002 | 71 | 0.0 | 0.0 | 0.00 | 0.00 | 0.00 | 25 | 1012.4 | |
| 20260504200502 | 72 | 0.0 | 0.0 | 0.00 | 0.00 | 0.00 | 24 | 1012.4 | |
| 20260504200002 | 71 | 0.0 | 0.0 | 0.00 | 0.00 | 0.00 | 25 | 1012.3 | |
| 20260504195502 | 72 | 0.0 | 0.0 | 0.00 | 0.00 | 0.00 | 24 | 1012.4 | |
| 20260504195002 | 72 | 0.0 | 0.0 | 0.00 | 0.00 | 0.00 | 24 | 1012.4 | |
| 20260504194502 | 73 | 0.0 | 0.0 | 0.00 | 0.00 | 0.00 | 22 | 1012.4 | |
| 20260504194002 | 73 | 0.0 | 0.0 | 0.00 | 0.00 | 0.00 | 22 | 1012.4 | |
| 20260504193502 | 73 | 0.0 | 0.0 | 0.00 | 0.00 | 0.00 | 22 | 1012.5 | |
| 20260504193002 | 74 | 0.0 | 0.0 | 0.00 | 0.00 | 0.00 | 22 | 1012.3 | |
| 20260504192502 | 74 | 0.0 | 0.0 | 0.00 | 0.00 | 0.00 | 22 | 1012.3 | |
| 20260504192002 | 74 | 0.0 | 0.0 | 0.00 | 0.00 | 0.00 | 21 | 1012.3 | |
| 20260504191502 | 75 | 0.0 | 0.0 | 0.00 | 0.00 | 0.00 | 20 | 1012.3 | |
| 20260504191002 | 75 | 0.0 | 0.0 | 0.00 | 0.00 | 0.00 | 20 | 1012.3 | |
| 20260504190502 | 75 | 0.0 | 0.0 | 0.00 | 0.00 | 0.00 | 19 | 1012.3 | |
| 20260504190002 | 75 | 0.0 | 0.0 | 0.00 | 0.00 | 0.00 | 19 | 1012.3 | |
| 20260504185502 | 75 | 0.0 | 0.0 | 0.00 | 0.00 | 0.00 | 19 | 1012.3 | |
| 20260504185002 | 76 | 0.0 | 0.0 | 0.00 | 0.00 | 0.00 | 19 | 1012.3 | |
| 20260504184502 | 76 | 0.0 | 0.0 | 0.00 | 0.00 | 0.00 | 19 | 1012.3 | |
| 20260504184002 | 76 | 0.0 | 0.0 | 0.00 | 0.00 | 0.00 | 19 | 1012.2 | |
| 20260504183502 | 76 | 0.0 | 0.0 | 0.00 | 0.00 | 0.00 | 18 | 1012.2 | |
| 20260504183002 | 77 | 0.0 | 0.0 | 0.00 | 0.00 | 0.00 | 18 | 1012.0 | |
| 20260504182502 | 77 | 0.0 | 0.0 | 0.00 | 0.00 | 0.00 | 18 | 1012.1 | |
| 20260504182002 | 77 | 0.0 | 0.0 | 0.00 | 0.00 | 0.00 | 18 | 1012.0 | |
| 20260504181502 | 77 | 0.0 | 0.0 | 0.00 | 0.00 | 0.00 | 17 | 1012.0 | |
| 20260504181002 | 78 | 0.0 | 0.0 | 0.00 | 0.00 | 0.00 | 17 | 1011.9 | |
| 20260504180502 | 78 | 0.0 | 0.0 | 0.00 | 0.00 | 0.00 | 17 | 1011.9 | |
| 20260504180002 | 78 | 0.0 | 0.0 | 0.00 | 0.00 | 0.00 | 17 | 1011.9 | |
| 20260504175502 | 79 | 0.0 | 0.0 | 0.00 | 0.00 | 0.00 | 17 | 1011.8 | |
| 20260504175002 | 79 | 0.0 | 0.0 | 0.00 | 0.00 | 0.00 | 16 | 1011.8 | |
| 20260504174502 | 80 | 0.0 | 0.0 | 0.00 | 0.00 | 0.00 | 16 | 1011.8 | |
| 20260504174002 | 80 | 0.0 | 0.0 | 0.00 | 0.00 | 0.00 | 16 | 1011.8 | |
| 20260504173502 | 81 | 0.0 | 0.0 | 0.00 | 0.00 | 0.00 | 15 | 1011.7 | |
| 20260504173002 | 81 | 0.0 | 0.0 | 0.00 | 0.00 | 0.00 | 14 | 1011.6 | |
| 20260504172502 | 82 | 0.0 | 0.0 | 0.00 | 0.00 | 0.00 | 14 | 1011.7 | |
| 20260504172002 | 82 | 0.0 | 0.0 | 0.00 | 0.00 | 0.00 | 14 | 1011.6 | |
| 20260504171502 | 82 | 0.0 | 0.0 | 0.00 | 0.00 | 0.00 | 14 | 1011.7 | |
| 20260504171002 | 83 | 0.0 | 0.0 | 0.00 | 0.00 | 0.00 | 13 | 1011.6 | |
| 20260504170502 | 84 | 0.0 | 0.0 | 0.00 | 0.00 | 0.00 | 13 | 1011.7 | |
| 20260504151002 | 90 | 0.0 | 0.0 | 0.00 | 0.00 | 0.00 | 9 | 1011.8 | |
| 20260504150502 | 89 | 0.0 | 0.0 | 0.00 | 0.00 | 0.00 | 10 | 1011.8 | |
| 20260504141002 | 89 | 0.0 | 0.0 | 0.00 | 0.00 | 0.00 | 9 | 1012.3 | |
| 20260504140502 | 90 | 0.0 | 0.0 | 0.00 | 0.00 | 0.00 | 9 | 1012.3 | |
| 20260504110501 | 89 | 0.0 | 0.0 | 0.00 | 0.00 | 0.00 | 11 | 1014.4 | |
| 20260504082002 | 81 | 0.0 | 0.0 | 0.00 | 0.00 | 0.00 | 16 | 1016.3 | |
| 20260504081502 | 81 | 0.0 | 0.0 | 0.00 | 0.00 | 0.00 | 14 | 1016.2 | |
| 20260504081002 | 82 | 0.0 | 0.0 | 0.00 | 0.00 | 0.00 | 15 | 1016.3 | |
| 20260504080502 | 79 | 0.0 | 0.0 | 0.00 | 0.00 | 0.00 | 15 | 1016.4 | |
| 20260503230001 | 59 | 0.0 | 0.0 | 0.00 | 0.00 | 0.00 | 41 | 1016.4 | |
| 20260503225501 | 59 | 0.0 | 0.0 | 0.00 | 0.00 | 0.00 | 41 | 1016.4 | |
| 20260503225001 | 59 | 0.0 | 0.0 | 0.00 | 0.00 | 0.00 | 41 | 1016.4 | |
| 20260503224501 | 60 | 0.0 | 0.0 | 0.00 | 0.00 | 0.00 | 41 | 1016.4 | |
| 20260503224001 | 60 | 0.0 | 0.0 | 0.00 | 0.00 | 0.00 | 42 | 1016.3 | |
| 20260503223502 | 60 | 0.0 | 0.0 | 0.00 | 0.00 | 0.00 | 41 | 1016.3 | |
| 20260503223001 | 60 | 0.0 | 0.0 | 0.00 | 0.00 | 0.00 | 41 | 1016.3 | |
| 20260503222501 | 61 | 0.0 | 0.0 | 0.00 | 0.00 | 0.00 | 39 | 1016.2 | |
| 20260503222001 | 61 | 0.0 | 0.0 | 0.00 | 0.00 | 0.00 | 38 | 1016.3 | |
| 20260503221501 | 61 | 0.0 | 0.0 | 0.00 | 0.00 | 0.00 | 38 | 1016.4 | |
| 20260503221001 | 61 | 0.0 | 0.0 | 0.00 | 0.00 | 0.00 | 37 | 1016.3 | |
| 20260503220501 | 61 | 0.0 | 0.0 | 0.00 | 0.00 | 0.00 | 37 | 1016.4 | |
| 20260503220001 | 61 | 0.0 | 0.0 | 0.00 | 0.00 | 0.00 | 37 | 1016.3 | |
| 20260503215501 | 62 | 0.0 | 0.0 | 0.00 | 0.00 | 0.00 | 37 | 1016.3 | |
| 20260503215001 | 61 | 0.0 | 0.0 | 0.00 | 0.00 | 0.00 | 38 | 1016.3 | |
| 20260503214501 | 61 | 0.0 | 0.0 | 0.00 | 0.00 | 0.00 | 39 | 1016.3 | |
| 20260503214001 | 62 | 0.0 | 0.0 | 0.00 | 0.00 | 0.00 | 37 | 1016.2 | |
| 20260503213501 | 62 | 0.0 | 0.0 | 0.00 | 0.00 | 0.00 | 37 | 1016.1 | |
| 20260503213001 | 62 | 0.0 | 0.0 | 0.00 | 0.00 | 0.00 | 37 | 1016.2 | |
| 20260503212501 | 63 | 0.0 | 0.0 | 0.00 | 0.00 | 0.00 | 36 | 1016.1 | |
| 20260503212001 | 63 | 0.0 | 0.0 | 0.00 | 0.00 | 0.00 | 36 | 1016.2 | |
| 20260503211501 | 63 | 0.0 | 0.0 | 0.00 | 0.00 | 0.00 | 35 | 1016.1 | |
| 20260503211001 | 63 | 0.0 | 0.0 | 0.00 | 0.00 | 0.00 | 34 | 1016.2 | |
| 20260503210501 | 63 | 0.0 | 0.0 | 0.00 | 0.00 | 0.00 | 35 | 1016.2 | |
| 20260503210001 | 63 | 0.0 | 0.0 | 0.00 | 0.00 | 0.00 | 35 | 1016.1 | |
| 20260503205502 | 64 | 0.0 | 0.0 | 0.00 | 0.00 | 0.00 | 34 | 1016.0 |